Time,TemperatureF,DewpointF,PressureIn,WindDirection,WindDirectionDegrees,WindSpeedMPH,WindSpeedGustMPH,Humidity,HourlyPrecipIn,Conditions,Clouds,dailyrainin,SoftwareType,DateUTC
2013-01-09 00:01:00,23.0,21.0,30.18,West,268,0.0,-999.0,92,-99.99,,,0.00,ADS-WS1 bash script,2013-01-09 05:01:00,
2013-01-09 00:05:00,23.0,21.0,30.18,West,268,0.0,-999.0,93,-99.99,,,0.00,ADS-WS1 bash script,2013-01-09 05:05:00,
2013-01-09 00:10:00,23.0,21.0,30.18,West,268,0.0,-999.0,92,-99.99,,,0.00,ADS-WS1 bash script,2013-01-09 05:10:00,
2013-01-09 00:15:00,23.0,21.0,30.18,SW,231,0.0,-999.0,92,-99.99,,,0.00,ADS-WS1 bash script,2013-01-09 05:15:00,
2013-01-09 00:20:00,23.0,21.0,30.18,SW,224,0.0,-999.0,92,-99.99,,,0.00,ADS-WS1 bash script,2013-01-09 05:20:00,
2013-01-09 00:25:00,23.0,21.0,30.18,NNW,341,0.0,-999.0,93,-99.99,,,0.00,ADS-WS1 bash script,2013-01-09 05:25:00,
2013-01-09 00:30:00,23.0,21.0,30.18,North,0,0.0,-999.0,92,-99.99,,,0.00,ADS-WS1 bash script,2013-01-09 05:30:00,
2013-01-09 00:40:00,22.4,19.0,30.17,NW,313,0.0,-999.0,91,-99.99,,,0.00,ADS-WS1 bash script,2013-01-09 05:40:00,
2013-01-09 00:45:00,22.4,20.0,30.17,West,268,0.0,-999.0,92,-99.99,,,0.00,ADS-WS1 bash script,2013-01-09 05:45:00,
2013-01-09 00:50:00,22.4,20.0,30.17,NW,313,0.0,-999.0,92,-99.99,,,0.00,ADS-WS1 bash script,2013-01-09 05:50:00,
2013-01-09 00:55:00,22.4,20.0,30.17,NNW,341,0.0,-999.0,93,-99.99,,,0.00,ADS-WS1 bash script,2013-01-09 05:55:00,
2013-01-09 01:00:00,22.2,19.0,30.17,NNW,344,0.0,-999.0,91,-99.99,,,0.00,ADS-WS1 bash script,2013-01-09 06:00:00,
2013-01-09 01:05:00,22.1,20.0,30.16,West,268,0.0,-999.0,92,-99.99,,,0.00,ADS-WS1 bash script,2013-01-09 06:05:00,
2013-01-09 01:10:00,21.9,19.0,30.15,West,278,0.0,-999.0,91,-99.99,,,0.00,ADS-WS1 bash script,2013-01-09 06:10:00,
2013-01-09 01:15:00,21.9,19.0,30.15,West,268,0.0,-999.0,91,-99.99,,,0.00,ADS-WS1 bash script,2013-01-09 06:15:00,
2013-01-09 01:20:00,21.9,19.0,30.15,NW,313,0.0,-999.0,91,-99.99,,,0.00,ADS-WS1 bash script,2013-01-09 06:20:00,
2013-01-09 01:25:00,21.7,20.0,30.15,West,268,0.0,-999.0,92,-99.99,,,0.00,ADS-WS1 bash script,2013-01-09 06:25:00,
2013-01-09 01:35:00,21.5,20.0,30.14,South,179,0.0,-999.0,92,-99.99,,,0.00,ADS-WS1 bash script,2013-01-09 06:35:00,
2013-01-09 01:40:00,21.5,19.0,30.14,South,179,0.0,-999.0,91,-99.99,,,0.00,ADS-WS1 bash script,2013-01-09 06:40:00,
2013-01-09 01:50:00,21.3,18.0,30.13,South,179,0.0,-999.0,91,-99.99,,,0.00,ADS-WS1 bash script,2013-01-09 06:50:00,
2013-01-09 01:55:00,21.3,18.0,30.13,South,179,0.0,-999.0,91,-99.99,,,0.00,ADS-WS1 bash script,2013-01-09 06:55:00,
2013-01-09 02:00:00,21.5,20.0,30.13,West,268,0.0,-999.0,93,-99.99,,,0.00,ADS-WS1 bash script,2013-01-09 07:00:00,
2013-01-09 02:05:00,21.5,20.0,30.13,South,179,0.0,-999.0,92,-99.99,,,0.00,ADS-WS1 bash script,2013-01-09 07:05:00,
2013-01-09 02:10:00,21.5,20.0,30.13,South,179,0.0,-999.0,92,-99.99,,,0.00,ADS-WS1 bash script,2013-01-09 07:10:00,
2013-01-09 02:15:00,21.5,19.0,30.13,West,268,0.0,-999.0,91,-99.99,,,0.00,ADS-WS1 bash script,2013-01-09 07:15:00,
2013-01-09 02:20:00,21.5,19.0,30.13,NW,313,0.0,-999.0,91,-99.99,,,0.00,ADS-WS1 bash script,2013-01-09 07:20:00,
2013-01-09 02:25:00,21.5,19.0,30.14,West,268,0.0,-999.0,91,-99.99,,,0.00,ADS-WS1 bash script,2013-01-09 07:25:00,
2013-01-09 02:30:00,21.5,19.0,30.14,West,268,0.0,-999.0,91,-99.99,,,0.00,ADS-WS1 bash script,2013-01-09 07:30:00,
2013-01-09 02:40:00,21.5,19.0,30.13,NW,313,0.0,-999.0,91,-99.99,,,0.00,ADS-WS1 bash script,2013-01-09 07:40:00,
2013-01-09 02:45:00,21.7,19.0,30.13,NW,313,0.0,-999.0,91,-99.99,,,0.00,ADS-WS1 bash script,2013-01-09 07:45:00,
2013-01-09 02:55:00,21.7,20.0,30.13,West,268,0.0,-999.0,93,-99.99,,,0.00,ADS-WS1 bash script,2013-01-09 07:55:00,
2013-01-09 03:00:00,21.7,20.0,30.13,NW,313,0.0,-999.0,92,-99.99,,,0.00,ADS-WS1 bash script,2013-01-09 08:00:00,
2013-01-09 03:10:00,21.9,20.0,30.13,NW,313,0.0,-999.0,92,-99.99,,,0.00,ADS-WS1 bash script,2013-01-09 08:10:00,
2013-01-09 03:15:00,21.9,20.0,30.13,West,268,0.0,-999.0,92,-99.99,,,0.00,ADS-WS1 bash script,2013-01-09 08:15:00,
2013-01-09 03:20:00,21.9,20.0,30.13,West,268,0.0,-999.0,93,-99.99,,,0.00,ADS-WS1 bash script,2013-01-09 08:20:00,
2013-01-09 03:25:00,22.1,20.0,30.13,South,179,0.0,-999.0,92,-99.99,,,0.00,ADS-WS1 bash script,2013-01-09 08:25:00,
2013-01-09 03:30:00,22.4,20.0,30.13,South,179,0.0,-999.0,93,-99.99,,,0.00,ADS-WS1 bash script,2013-01-09 08:30:00,
2013-01-09 03:35:00,23.0,21.0,30.12,South,179,2.0,-999.0,93,-99.99,,,0.00,ADS-WS1 bash script,2013-01-09 08:35:00,
2013-01-09 03:40:00,23.3,21.0,30.12,SSW,204,2.0,-999.0,93,-99.99,,,0.00,ADS-WS1 bash script,2013-01-09 08:40:00,
2013-01-09 03:45:00,23.9,22.0,30.12,SW,224,1.0,-999.0,93,-99.99,,,0.00,ADS-WS1 bash script,2013-01-09 08:45:00,
2013-01-09 03:55:00,25.1,23.0,30.12,SW,224,1.0,-999.0,94,-99.99,,,0.00,ADS-WS1 bash script,2013-01-09 08:55:00,
2013-01-09 04:00:00,25.5,25.0,30.11,SW,225,1.0,-999.0,95,-99.99,,,0.00,ADS-WS1 bash script,2013-01-09 09:00:00,
2013-01-09 04:05:00,26.0,25.0,30.11,SW,230,1.0,-999.0,95,-99.99,,,0.00,ADS-WS1 bash script,2013-01-09 09:05:00,
2013-01-09 04:10:00,26.7,26.0,30.10,SSW,194,2.0,-999.0,96,-99.99,,,0.00,ADS-WS1 bash script,2013-01-09 09:10:00,
2013-01-09 04:20:00,28.5,27.0,30.10,SW,224,1.0,-999.0,95,-99.99,,,0.00,ADS-WS1 bash script,2013-01-09 09:20:00,
2013-01-09 04:30:00,29.3,27.0,30.08,SSW,194,2.0,-999.0,94,-99.99,,,0.00,ADS-WS1 bash script,2013-01-09 09:30:00,
2013-01-09 04:35:00,29.8,29.0,30.08,SW,225,1.0,-999.0,95,-99.99,,,0.00,ADS-WS1 bash script,2013-01-09 09:35:00,
2013-01-09 04:40:00,30.2,28.0,30.09,SSW,211,2.0,-999.0,94,-99.99,,,0.00,ADS-WS1 bash script,2013-01-09 09:40:00,
2013-01-09 04:50:00,30.7,29.0,30.08,SSW,211,1.0,-999.0,93,-99.99,,,0.00,ADS-WS1 bash script,2013-01-09 09:50:00,
2013-01-09 04:55:00,30.9,29.0,30.08,SW,225,1.0,-999.0,93,-99.99,,,0.00,ADS-WS1 bash script,2013-01-09 09:55:00,
2013-01-09 05:00:00,31.1,29.0,30.07,SW,225,2.0,-999.0,93,-99.99,,,0.00,ADS-WS1 bash script,2013-01-09 10:00:00,
2013-01-09 05:05:00,31.4,29.0,30.08,SW,228,2.0,-999.0,92,-99.99,,,0.00,ADS-WS1 bash script,2013-01-09 10:05:00,
2013-01-09 05:10:00,31.6,30.0,30.07,SW,225,2.0,-999.0,92,-99.99,,,0.00,ADS-WS1 bash script,2013-01-09 10:10:00,
2013-01-09 05:15:00,31.8,29.0,30.07,SW,224,2.0,-999.0,91,-99.99,,,0.00,ADS-WS1 bash script,2013-01-09 10:15:00,
2013-01-09 05:20:00,32.0,29.0,30.06,WSW,242,2.0,-999.0,91,-99.99,,,0.00,ADS-WS1 bash script,2013-01-09 10:20:00,
2013-01-09 05:25:00,32.3,29.0,30.07,SW,218,3.0,-999.0,91,-99.99,,,0.00,ADS-WS1 bash script,2013-01-09 10:25:00,
2013-01-09 05:30:00,32.5,29.0,30.07,SW,220,3.0,-999.0,91,-99.99,,,0.00,ADS-WS1 bash script,2013-01-09 10:30:00,
2013-01-09 05:35:00,32.7,30.0,30.07,SW,225,2.0,-999.0,90,-99.99,,,0.00,ADS-WS1 bash script,2013-01-09 10:35:00,
2013-01-09 05:40:00,33.0,30.0,30.08,SSW,207,0.0,-999.0,90,-99.99,,,0.00,ADS-WS1 bash script,2013-01-09 10:40:00,
2013-01-09 05:45:00,33.4,30.0,30.07,SW,214,4.0,-999.0,91,-99.99,,,0.00,ADS-WS1 bash script,2013-01-09 10:45:00,
2013-01-09 05:50:00,34.1,31.0,30.08,WSW,255,5.0,-999.0,89,-99.99,,,0.00,ADS-WS1 bash script,2013-01-09 10:50:00,
2013-01-09 05:55:00,34.6,32.0,30.07,West,263,3.0,-999.0,90,-99.99,,,0.00,ADS-WS1 bash script,2013-01-09 10:55:00,
2013-01-09 06:00:00,35.0,31.0,30.08,SW,234,3.0,-999.0,87,-99.99,,,0.00,ADS-WS1 bash script,2013-01-09 11:00:00,
2013-01-09 06:05:00,35.2,31.0,30.07,South,179,5.0,-999.0,87,-99.99,,,0.00,ADS-WS1 bash script,2013-01-09 11:05:00,
2013-01-09 06:10:00,35.2,31.0,30.07,SW,224,10.0,-999.0,87,-99.99,,,0.00,ADS-WS1 bash script,2013-01-09 11:10:00,
2013-01-09 06:15:00,35.4,30.0,30.07,West,268,5.0,-999.0,86,-99.99,,,0.00,ADS-WS1 bash script,2013-01-09 11:15:00,
2013-01-09 06:20:00,35.4,30.0,30.05,South,179,3.0,-999.0,85,-99.99,,,0.00,ADS-WS1 bash script,2013-01-09 11:20:00,
2013-01-09 06:25:00,35.4,30.0,30.04,SW,214,4.0,-999.0,86,-99.99,,,0.00,ADS-WS1 bash script,2013-01-09 11:25:00,
2013-01-09 06:30:00,35.4,30.0,30.05,SW,224,4.0,-999.0,85,-99.99,,,0.00,ADS-WS1 bash script,2013-01-09 11:30:00,
2013-01-09 06:35:00,35.5,31.0,30.05,West,268,3.0,-999.0,86,-99.99,,,0.00,ADS-WS1 bash script,2013-01-09 11:35:00,
2013-01-09 06:40:00,35.5,31.0,30.04,South,179,2.0,-999.0,86,-99.99,,,0.00,ADS-WS1 bash script,2013-01-09 11:40:00,
2013-01-09 06:45:00,35.7,32.0,30.05,South,179,3.0,-999.0,87,-99.99,,,0.00,ADS-WS1 bash script,2013-01-09 11:45:00,
2013-01-09 06:55:00,35.9,31.0,30.05,SW,224,1.0,-999.0,86,-99.99,,,0.00,ADS-WS1 bash script,2013-01-09 11:55:00,
2013-01-09 07:00:00,35.9,31.0,30.05,SW,234,4.0,-999.0,85,-99.99,,,0.00,ADS-WS1 bash script,2013-01-09 12:00:00,
2013-01-09 07:05:00,35.9,31.0,30.05,West,261,5.0,-999.0,85,-99.99,,,0.00,ADS-WS1 bash script,2013-01-09 12:05:00,
2013-01-09 07:10:00,35.7,32.0,30.05,SW,228,4.0,-999.0,87,-99.99,,,0.00,ADS-WS1 bash script,2013-01-09 12:10:00,
2013-01-09 07:20:00,36.3,31.0,30.05,SW,224,3.0,-999.0,86,-99.99,,,0.00,ADS-WS1 bash script,2013-01-09 12:20:00,
2013-01-09 07:25:00,36.4,31.0,30.05,WSW,245,6.0,-999.0,86,-99.99,,,0.00,ADS-WS1 bash script,2013-01-09 12:25:00,
2013-01-09 07:30:00,36.8,32.0,30.06,WSW,245,5.0,-999.0,85,-99.99,,,0.00,ADS-WS1 bash script,2013-01-09 12:30:00,
2013-01-09 07:40:00,37.2,32.0,30.06,SW,217,2.0,-999.0,85,-99.99,,,0.00,ADS-WS1 bash script,2013-01-09 12:40:00,
2013-01-09 07:45:00,37.3,32.0,30.06,WSW,254,3.0,-999.0,85,-99.99,,,0.00,ADS-WS1 bash script,2013-01-09 12:45:00,
2013-01-09 07:50:00,37.7,32.0,30.06,West,268,2.0,-999.0,83,-99.99,,,0.00,ADS-WS1 bash script,2013-01-09 12:50:00,
2013-01-09 07:55:00,37.7,33.0,30.06,SSW,208,1.0,-999.0,84,-99.99,,,0.00,ADS-WS1 bash script,2013-01-09 12:55:00,
2013-01-09 08:00:00,37.9,32.0,30.07,SW,232,4.0,-999.0,83,-99.99,,,0.00,ADS-WS1 bash script,2013-01-09 13:00:00,
2013-01-09 08:05:00,38.1,32.0,30.07,WSW,256,4.0,-999.0,82,-99.99,,,0.00,ADS-WS1 bash script,2013-01-09 13:05:00,
2013-01-09 08:10:00,38.2,32.0,30.07,SW,215,9.0,-999.0,82,-99.99,,,0.00,ADS-WS1 bash script,2013-01-09 13:10:00,
2013-01-09 08:20:00,38.2,32.0,30.07,West,262,8.0,-999.0,83,-99.99,,,0.00,ADS-WS1 bash script,2013-01-09 13:20:00,
2013-01-09 08:25:00,38.4,32.0,30.08,West,279,2.0,-999.0,83,-99.99,,,0.00,ADS-WS1 bash script,2013-01-09 13:25:00,
2013-01-09 08:35:00,38.4,32.0,30.08,West,279,10.0,-999.0,81,-99.99,,,0.00,ADS-WS1 bash script,2013-01-09 13:35:00,
2013-01-09 08:40:00,38.8,33.0,30.08,West,261,6.0,-999.0,81,-99.99,,,0.00,ADS-WS1 bash script,2013-01-09 13:40:00,
2013-01-09 08:50:00,38.8,33.0,30.09,SW,228,4.0,-999.0,82,-99.99,,,0.00,ADS-WS1 bash script,2013-01-09 13:50:00,
2013-01-09 08:55:00,39.0,33.0,30.09,SW,234,5.0,-999.0,81,-99.99,,,0.00,ADS-WS1 bash script,2013-01-09 13:55:00,
2013-01-09 09:00:00,39.1,33.0,30.09,West,268,4.0,-999.0,81,-99.99,,,0.00,ADS-WS1 bash script,2013-01-09 14:00:00,
2013-01-09 09:05:00,39.5,33.0,30.09,West,280,8.0,-999.0,80,-99.99,,,0.00,ADS-WS1 bash script,2013-01-09 14:05:00,
2013-01-09 09:15:00,40.2,33.0,30.09,West,275,5.0,-999.0,78,-99.99,,,0.00,ADS-WS1 bash script,2013-01-09 14:15:00,
2013-01-09 09:20:00,40.4,33.0,30.09,West,272,6.0,-999.0,79,-99.99,,,0.00,ADS-WS1 bash script,2013-01-09 14:20:00,
2013-01-09 09:30:00,40.8,34.0,30.10,WNW,287,2.0,-999.0,78,-99.99,,,0.00,ADS-WS1 bash script,2013-01-09 14:30:00,
2013-01-09 09:40:00,40.9,33.0,30.11,WNW,282,5.0,-999.0,77,-99.99,,,0.00,ADS-WS1 bash script,2013-01-09 14:40:00,
2013-01-09 09:50:00,41.3,33.0,30.11,WSW,249,7.0,-999.0,76,-99.99,,,0.00,ADS-WS1 bash script,2013-01-09 14:50:00,
2013-01-09 09:55:00,41.5,33.0,30.10,WNW,293,3.0,-999.0,75,-99.99,,,0.00,ADS-WS1 bash script,2013-01-09 14:55:00,
2013-01-09 10:00:00,41.8,33.0,30.11,West,268,10.0,-999.0,75,-99.99,,,0.00,ADS-WS1 bash script,2013-01-09 15:00:00,
2013-01-09 10:05:00,42.2,33.0,30.11,WSW,237,6.0,-999.0,74,-99.99,,,0.00,ADS-WS1 bash script,2013-01-09 15:05:00,
2013-01-09 10:10:00,42.4,33.0,30.11,West,268,13.0,-999.0,73,-99.99,,,0.00,ADS-WS1 bash script,2013-01-09 15:10:00,
2013-01-09 10:15:00,42.7,33.0,30.12,West,280,8.0,-999.0,72,-99.99,,,0.00,ADS-WS1 bash script,2013-01-09 15:15:00,
2013-01-09 10:20:00,43.3,33.0,30.12,WNW,302,4.0,-999.0,71,-99.99,,,0.00,ADS-WS1 bash script,2013-01-09 15:20:00,
2013-01-09 10:25:00,43.6,34.0,30.12,West,273,4.0,-999.0,70,-99.99,,,0.00,ADS-WS1 bash script,2013-01-09 15:25:00,
2013-01-09 10:30:00,43.8,34.0,30.12,WNW,303,10.0,-999.0,70,-99.99,,,0.00,ADS-WS1 bash script,2013-01-09 15:30:00,
2013-01-09 10:35:00,44.0,33.0,30.12,West,265,5.0,-999.0,69,-99.99,,,0.00,ADS-WS1 bash script,2013-01-09 15:35:00,
2013-01-09 10:40:00,44.0,33.0,30.13,West,279,11.0,-999.0,67,-99.99,,,0.00,ADS-WS1 bash script,2013-01-09 15:40:00,
2013-01-09 10:45:00,44.2,33.0,30.12,WNW,285,7.0,-999.0,67,-99.99,,,0.00,ADS-WS1 bash script,2013-01-09 15:45:00,
2013-01-09 10:50:00,44.2,33.0,30.13,WNW,299,21.0,-999.0,67,-99.99,,,0.00,ADS-WS1 bash script,2013-01-09 15:50:00,
2013-01-09 10:55:00,44.3,33.0,30.13,West,271,13.0,-999.0,67,-99.99,,,0.00,ADS-WS1 bash script,2013-01-09 15:55:00,
2013-01-09 11:00:00,44.3,32.0,30.13,WNW,290,3.0,-999.0,66,-99.99,,,0.00,ADS-WS1 bash script,2013-01-09 16:00:00,
2013-01-09 11:05:00,44.5,32.0,30.13,West,279,6.0,-999.0,65,-99.99,,,0.00,ADS-WS1 bash script,2013-01-09 16:05:00,
2013-01-09 11:10:00,44.5,32.0,30.13,West,268,10.0,-999.0,65,-99.99,,,0.00,ADS-WS1 bash script,2013-01-09 16:10:00,
2013-01-09 11:15:00,44.9,33.0,30.12,WNW,299,11.0,-999.0,65,-99.99,,,0.00,ADS-WS1 bash script,2013-01-09 16:15:00,
2013-01-09 11:20:00,44.9,32.0,30.13,WNW,299,11.0,-999.0,63,-99.99,,,0.00,ADS-WS1 bash script,2013-01-09 16:20:00,
2013-01-09 11:25:00,45.2,33.0,30.13,WNW,296,7.0,-999.0,64,-99.99,,,0.00,ADS-WS1 bash script,2013-01-09 16:25:00,
2013-01-09 11:35:00,45.2,32.0,30.12,WNW,286,7.0,-999.0,63,-99.99,,,0.00,ADS-WS1 bash script,2013-01-09 16:35:00,
2013-01-09 11:40:00,45.4,32.0,30.12,NW,313,10.0,-999.0,63,-99.99,,,0.00,ADS-WS1 bash script,2013-01-09 16:40:00,
2013-01-09 11:45:00,45.4,31.0,30.13,NW,313,6.0,-999.0,61,-99.99,,,0.00,ADS-WS1 bash script,2013-01-09 16:45:00,
2013-01-09 11:50:00,45.6,33.0,30.13,West,259,8.0,-999.0,62,-99.99,,,0.00,ADS-WS1 bash script,2013-01-09 16:50:00,
2013-01-09 11:55:00,45.6,32.0,30.13,NW,313,8.0,-999.0,61,-99.99,,,0.00,ADS-WS1 bash script,2013-01-09 16:55:00,
2013-01-09 12:00:00,45.6,32.0,30.12,WNW,302,7.0,-999.0,59,-99.99,,,0.00,ADS-WS1 bash script,2013-01-09 17:00:00,
2013-01-09 12:05:00,45.6,32.0,30.12,WNW,302,10.0,-999.0,59,-99.99,,,0.00,ADS-WS1 bash script,2013-01-09 17:05:00,
2013-01-09 12:15:00,45.4,31.0,30.12,West,268,4.0,-999.0,60,-99.99,,,0.00,ADS-WS1 bash script,2013-01-09 17:15:00,
2013-01-09 12:20:00,45.2,31.0,30.12,WNW,302,13.0,-999.0,59,-99.99,,,0.00,ADS-WS1 bash script,2013-01-09 17:20:00,
2013-01-09 12:25:00,45.2,31.0,30.12,West,268,7.0,-999.0,59,-99.99,,,0.00,ADS-WS1 bash script,2013-01-09 17:25:00,
2013-01-09 12:30:00,45.4,31.0,30.12,West,268,4.0,-999.0,59,-99.99,,,0.00,ADS-WS1 bash script,2013-01-09 17:30:00,
2013-01-09 12:35:00,45.4,31.0,30.12,WNW,296,10.0,-999.0,59,-99.99,,,0.00,ADS-WS1 bash script,2013-01-09 17:35:00,
2013-01-09 12:45:00,45.4,30.0,30.12,NW,313,6.0,-999.0,58,-99.99,,,0.00,ADS-WS1 bash script,2013-01-09 17:45:00,
2013-01-09 12:50:00,45.4,30.0,30.12,NW,313,10.0,-999.0,58,-99.99,,,0.00,ADS-WS1 bash script,2013-01-09 17:50:00,
2013-01-09 12:55:00,45.6,31.0,30.12,West,268,8.0,-999.0,57,-99.99,,,0.00,ADS-WS1 bash script,2013-01-09 17:55:00,
2013-01-09 13:00:00,45.8,31.0,30.12,West,268,10.0,-999.0,58,-99.99,,,0.00,ADS-WS1 bash script,2013-01-09 18:00:00,
2013-01-09 13:05:00,45.8,31.0,30.12,West,279,11.0,-999.0,57,-99.99,,,0.00,ADS-WS1 bash script,2013-01-09 18:05:00,
2013-01-09 13:10:00,45.8,31.0,30.12,WNW,290,8.0,-999.0,57,-99.99,,,0.00,ADS-WS1 bash script,2013-01-09 18:10:00,
2013-01-09 13:15:00,46.0,31.0,30.12,West,279,9.0,-999.0,56,-99.99,,,0.00,ADS-WS1 bash script,2013-01-09 18:15:00,
2013-01-09 13:25:00,46.1,30.0,30.12,NW,313,12.0,-999.0,55,-99.99,,,0.00,ADS-WS1 bash script,2013-01-09 18:25:00,
2013-01-09 13:30:00,46.1,30.0,30.12,WSW,254,12.0,-999.0,55,-99.99,,,0.00,ADS-WS1 bash script,2013-01-09 18:30:00,
2013-01-09 13:35:00,46.1,30.0,30.12,NW,306,11.0,-999.0,55,-99.99,,,0.00,ADS-WS1 bash script,2013-01-09 18:35:00,
2013-01-09 13:40:00,46.1,30.0,30.12,WNW,286,9.0,-999.0,55,-99.99,,,0.00,ADS-WS1 bash script,2013-01-09 18:40:00,
2013-01-09 13:45:00,46.3,30.0,30.12,WNW,290,7.0,-999.0,55,-99.99,,,0.00,ADS-WS1 bash script,2013-01-09 18:45:00,
2013-01-09 13:50:00,46.3,30.0,30.13,WNW,302,16.0,-999.0,55,-99.99,,,0.00,ADS-WS1 bash script,2013-01-09 18:50:00,
2013-01-09 13:55:00,46.5,30.0,30.13,WNW,290,10.0,-999.0,55,-99.99,,,0.00,ADS-WS1 bash script,2013-01-09 18:55:00,
2013-01-09 14:00:00,46.3,30.0,30.12,West,279,6.0,-999.0,55,-99.99,,,0.00,ADS-WS1 bash script,2013-01-09 19:00:00,
2013-01-09 14:10:00,46.5,30.0,30.13,WSW,245,4.0,-999.0,54,-99.99,,,0.00,ADS-WS1 bash script,2013-01-09 19:10:00,
2013-01-09 14:15:00,46.5,30.0,30.13,WNW,283,16.0,-999.0,54,-99.99,,,0.00,ADS-WS1 bash script,2013-01-09 19:15:00,
2013-01-09 14:20:00,46.5,30.0,30.14,West,278,10.0,-999.0,54,-99.99,,,0.00,ADS-WS1 bash script,2013-01-09 19:20:00,
2013-01-09 14:25:00,46.7,30.0,30.14,West,279,15.0,-999.0,52,-99.99,,,0.00,ADS-WS1 bash script,2013-01-09 19:25:00,
2013-01-09 14:30:00,46.7,30.0,30.13,West,278,9.0,-999.0,51,-99.99,,,0.00,ADS-WS1 bash script,2013-01-09 19:30:00,
2013-01-09 14:40:00,46.9,30.0,30.14,WNW,287,6.0,-999.0,51,-99.99,,,0.00,ADS-WS1 bash script,2013-01-09 19:40:00,
2013-01-09 14:45:00,47.0,30.0,30.14,WNW,290,13.0,-999.0,51,-99.99,,,0.00,ADS-WS1 bash script,2013-01-09 19:45:00,
2013-01-09 14:50:00,47.0,29.0,30.15,NW,313,12.0,-999.0,49,-99.99,,,0.00,ADS-WS1 bash script,2013-01-09 19:50:00,
2013-01-09 14:55:00,47.2,29.0,30.15,West,275,11.0,-999.0,49,-99.99,,,0.00,ADS-WS1 bash script,2013-01-09 19:55:00,
2013-01-09 15:00:00,47.2,29.0,30.15,WNW,283,7.0,-999.0,49,-99.99,,,0.00,ADS-WS1 bash script,2013-01-09 20:00:00,
2013-01-09 15:10:00,47.4,28.0,30.16,West,280,9.0,-999.0,46,-99.99,,,0.00,ADS-WS1 bash script,2013-01-09 20:10:00,
2013-01-09 15:15:00,47.6,29.0,30.16,West,275,13.0,-999.0,45,-99.99,,,0.00,ADS-WS1 bash script,2013-01-09 20:15:00,
2013-01-09 15:20:00,47.8,28.0,30.17,WNW,290,8.0,-999.0,43,-99.99,,,0.00,ADS-WS1 bash script,2013-01-09 20:20:00,
2013-01-09 15:25:00,47.9,28.0,30.16,WNW,299,16.0,-999.0,43,-99.99,,,0.00,ADS-WS1 bash script,2013-01-09 20:25:00,
2013-01-09 15:35:00,47.9,27.0,30.17,WNW,283,18.0,-999.0,40,-99.99,,,0.00,ADS-WS1 bash script,2013-01-09 20:35:00,
2013-01-09 15:40:00,47.9,28.0,30.17,NW,313,5.0,-999.0,42,-99.99,,,0.00,ADS-WS1 bash script,2013-01-09 20:40:00,
2013-01-09 15:45:00,47.9,27.0,30.17,NW,306,12.0,-999.0,41,-99.99,,,0.00,ADS-WS1 bash script,2013-01-09 20:45:00,
2013-01-09 15:50:00,48.1,27.0,30.17,WSW,239,17.0,-999.0,40,-99.99,,,0.00,ADS-WS1 bash script,2013-01-09 20:50:00,
2013-01-09 15:55:00,47.9,27.0,30.18,NW,313,11.0,-999.0,41,-99.99,,,0.00,ADS-WS1 bash script,2013-01-09 20:55:00,
2013-01-09 16:00:00,48.1,27.0,30.18,WNW,303,7.0,-999.0,41,-99.99,,,0.00,ADS-WS1 bash script,2013-01-09 21:00:00,
2013-01-09 16:05:00,48.1,28.0,30.19,WNW,302,11.0,-999.0,42,-99.99,,,0.00,ADS-WS1 bash script,2013-01-09 21:05:00,
2013-01-09 16:10:00,47.9,27.0,30.19,WNW,303,11.0,-999.0,41,-99.99,,,0.00,ADS-WS1 bash script,2013-01-09 21:10:00,
2013-01-09 16:15:00,47.8,28.0,30.19,WNW,302,17.0,-999.0,42,-99.99,,,0.00,ADS-WS1 bash script,2013-01-09 21:15:00,
2013-01-09 16:20:00,47.6,29.0,30.19,WNW,302,6.0,-999.0,45,-99.99,,,0.00,ADS-WS1 bash script,2013-01-09 21:20:00,
2013-01-09 16:25:00,47.4,27.0,30.19,NW,309,9.0,-999.0,44,-99.99,,,0.00,ADS-WS1 bash script,2013-01-09 21:25:00,
2013-01-09 16:30:00,47.4,27.0,30.19,NW,307,7.0,-999.0,44,-99.99,,,0.00,ADS-WS1 bash script,2013-01-09 21:30:00,
2013-01-09 16:35:00,47.0,27.0,30.20,WNW,293,8.0,-999.0,44,-99.99,,,0.00,ADS-WS1 bash script,2013-01-09 21:35:00,
2013-01-09 16:40:00,46.7,28.0,30.20,NW,304,6.0,-999.0,45,-99.99,,,0.00,ADS-WS1 bash script,2013-01-09 21:40:00,
2013-01-09 16:50:00,46.0,27.0,30.21,WNW,289,10.0,-999.0,46,-99.99,,,0.00,ADS-WS1 bash script,2013-01-09 21:50:00,
2013-01-09 16:55:00,45.8,27.0,30.21,West,279,8.0,-999.0,47,-99.99,,,0.00,ADS-WS1 bash script,2013-01-09 21:55:00,
2013-01-09 17:00:00,45.6,27.0,30.22,WNW,296,8.0,-999.0,47,-99.99,,,0.00,ADS-WS1 bash script,2013-01-09 22:00:00,
2013-01-09 17:05:00,45.4,26.0,30.22,WNW,299,5.0,-999.0,46,-99.99,,,0.00,ADS-WS1 bash script,2013-01-09 22:05:00,
2013-01-09 17:10:00,45.2,26.0,30.21,NW,313,3.0,-999.0,47,-99.99,,,0.00,ADS-WS1 bash script,2013-01-09 22:10:00,
2013-01-09 17:15:00,44.9,27.0,30.22,NW,313,5.0,-999.0,48,-99.99,,,0.00,ADS-WS1 bash script,2013-01-09 22:15:00,
2013-01-09 17:25:00,44.5,26.0,30.22,NW,304,6.0,-999.0,48,-99.99,,,0.00,ADS-WS1 bash script,2013-01-09 22:25:00,
2013-01-09 17:35:00,44.2,25.0,30.24,West,268,3.0,-999.0,47,-99.99,,,0.00,ADS-WS1 bash script,2013-01-09 22:35:00,
2013-01-09 17:40:00,44.0,26.0,30.23,West,268,12.0,-999.0,48,-99.99,,,0.00,ADS-WS1 bash script,2013-01-09 22:40:00,
2013-01-09 17:45:00,44.2,25.0,30.25,NW,313,3.0,-999.0,46,-99.99,,,0.00,ADS-WS1 bash script,2013-01-09 22:45:00,
2013-01-09 17:50:00,44.2,25.0,30.25,West,268,8.0,-999.0,46,-99.99,,,0.00,ADS-WS1 bash script,2013-01-09 22:50:00,
2013-01-09 17:55:00,44.0,25.0,30.25,West,268,9.0,-999.0,45,-99.99,,,0.00,ADS-WS1 bash script,2013-01-09 22:55:00,
2013-01-09 18:00:00,43.8,25.0,30.25,West,268,10.0,-999.0,47,-99.99,,,0.00,ADS-WS1 bash script,2013-01-09 23:00:00,
2013-01-09 18:05:00,43.6,25.0,30.26,West,268,5.0,-999.0,47,-99.99,,,0.00,ADS-WS1 bash script,2013-01-09 23:05:00,
2013-01-09 18:10:00,43.5,25.0,30.26,WNW,302,9.0,-999.0,47,-99.99,,,0.00,ADS-WS1 bash script,2013-01-09 23:10:00,
2013-01-09 18:15:00,43.3,25.0,30.27,NW,313,6.0,-999.0,48,-99.99,,,0.00,ADS-WS1 bash script,2013-01-09 23:15:00,
2013-01-09 18:20:00,43.5,25.0,30.27,West,268,9.0,-999.0,47,-99.99,,,0.00,ADS-WS1 bash script,2013-01-09 23:20:00,
2013-01-09 18:25:00,43.3,25.0,30.28,NW,306,6.0,-999.0,48,-99.99,,,0.00,ADS-WS1 bash script,2013-01-09 23:25:00,
2013-01-09 18:30:00,43.1,25.0,30.28,West,268,7.0,-999.0,49,-99.99,,,0.00,ADS-WS1 bash script,2013-01-09 23:30:00,
2013-01-09 18:35:00,43.1,25.0,30.28,NW,313,7.0,-999.0,48,-99.99,,,0.00,ADS-WS1 bash script,2013-01-09 23:35:00,
2013-01-09 18:40:00,42.9,25.0,30.29,NW,313,6.0,-999.0,49,-99.99,,,0.00,ADS-WS1 bash script,2013-01-09 23:40:00,
2013-01-09 18:50:00,42.7,25.0,30.30,WNW,302,6.0,-999.0,49,-99.99,,,0.00,ADS-WS1 bash script,2013-01-09 23:50:00,
2013-01-09 18:55:00,42.7,25.0,30.31,WNW,299,8.0,-999.0,49,-99.99,,,0.00,ADS-WS1 bash script,2013-01-09 23:55:00,
2013-01-09 19:00:00,42.7,25.0,30.31,NW,313,5.0,-999.0,49,-99.99,,,0.00,ADS-WS1 bash script,2013-01-10 00:00:00,
2013-01-09 19:05:00,42.6,25.0,30.32,NW,313,6.0,-999.0,48,-99.99,,,0.00,ADS-WS1 bash script,2013-01-10 00:05:00,
2013-01-09 19:15:00,42.4,24.0,30.32,West,268,9.0,-999.0,50,-99.99,,,0.00,ADS-WS1 bash script,2013-01-10 00:15:00,
2013-01-09 19:20:00,42.0,24.0,30.32,WNW,290,9.0,-999.0,50,-99.99,,,0.00,ADS-WS1 bash script,2013-01-10 00:20:00,
2013-01-09 19:25:00,42.0,25.0,30.33,NW,313,3.0,-999.0,51,-99.99,,,0.00,ADS-WS1 bash script,2013-01-10 00:25:00,
2013-01-09 19:35:00,41.7,26.0,30.33,NW,313,6.0,-999.0,53,-99.99,,,0.00,ADS-WS1 bash script,2013-01-10 00:35:00,
2013-01-09 19:40:00,41.7,25.0,30.34,WNW,296,18.0,-999.0,52,-99.99,,,0.00,ADS-WS1 bash script,2013-01-10 00:40:00,
2013-01-09 19:50:00,41.3,25.0,30.34,NW,317,14.0,-999.0,54,-99.99,,,0.00,ADS-WS1 bash script,2013-01-10 00:50:00,
2013-01-09 20:00:00,41.1,25.0,30.33,NNW,341,7.0,-999.0,55,-99.99,,,0.00,ADS-WS1 bash script,2013-01-10 01:00:00,
2013-01-09 20:05:00,40.9,26.0,30.34,NW,320,4.0,-999.0,56,-99.99,,,0.00,ADS-WS1 bash script,2013-01-10 01:05:00,
2013-01-09 20:10:00,40.6,25.0,30.34,NW,313,13.0,-999.0,55,-99.99,,,0.00,ADS-WS1 bash script,2013-01-10 01:10:00,
2013-01-09 20:15:00,40.4,25.0,30.34,NW,313,6.0,-999.0,56,-99.99,,,0.00,ADS-WS1 bash script,2013-01-10 01:15:00,
2013-01-09 20:20:00,40.2,25.0,30.35,North,0,9.0,-999.0,58,-99.99,,,0.00,ADS-WS1 bash script,2013-01-10 01:20:00,
2013-01-09 20:25:00,40.0,25.0,30.35,WNW,302,8.0,-999.0,58,-99.99,,,0.00,ADS-WS1 bash script,2013-01-10 01:25:00,
2013-01-09 20:30:00,39.7,25.0,30.34,WNW,290,6.0,-999.0,58,-99.99,,,0.00,ADS-WS1 bash script,2013-01-10 01:30:00,
2013-01-09 20:35:00,39.7,25.0,30.35,NW,324,4.0,-999.0,58,-99.99,,,0.00,ADS-WS1 bash script,2013-01-10 01:35:00,
2013-01-09 20:40:00,39.5,25.0,30.35,NNW,338,6.0,-999.0,58,-99.99,,,0.00,ADS-WS1 bash script,2013-01-10 01:40:00,
2013-01-09 20:45:00,39.3,25.0,30.35,NNW,335,6.0,-999.0,59,-99.99,,,0.00,ADS-WS1 bash script,2013-01-10 01:45:00,
2013-01-09 20:50:00,39.3,25.0,30.36,NNW,335,7.0,-999.0,60,-99.99,,,0.00,ADS-WS1 bash script,2013-01-10 01:50:00,
2013-01-09 20:55:00,39.1,25.0,30.36,NNW,330,6.0,-999.0,60,-99.99,,,0.00,ADS-WS1 bash script,2013-01-10 01:55:00,
2013-01-09 21:00:00,38.8,25.0,30.36,NW,316,2.0,-999.0,60,-99.99,,,0.00,ADS-WS1 bash script,2013-01-10 02:00:00,
2013-01-09 21:05:00,38.8,25.0,30.36,NNW,330,6.0,-999.0,61,-99.99,,,0.00,ADS-WS1 bash script,2013-01-10 02:05:00,
2013-01-09 21:15:00,38.6,26.0,30.37,NNW,328,5.0,-999.0,63,-99.99,,,0.00,ADS-WS1 bash script,2013-01-10 02:15:00,
2013-01-09 21:20:00,38.4,25.0,30.37,NW,320,5.0,-999.0,63,-99.99,,,0.00,ADS-WS1 bash script,2013-01-10 02:20:00,
2013-01-09 21:30:00,38.2,26.0,30.38,WNW,302,4.0,-999.0,65,-99.99,,,0.00,ADS-WS1 bash script,2013-01-10 02:30:00,
2013-01-09 21:35:00,38.1,26.0,30.37,NW,320,6.0,-999.0,65,-99.99,,,0.00,ADS-WS1 bash script,2013-01-10 02:35:00,
2013-01-09 21:40:00,38.1,26.0,30.38,NW,324,6.0,-999.0,65,-99.99,,,0.00,ADS-WS1 bash script,2013-01-10 02:40:00,
2013-01-09 21:50:00,37.7,27.0,30.37,NW,326,5.0,-999.0,67,-99.99,,,0.00,ADS-WS1 bash script,2013-01-10 02:50:00,
2013-01-09 21:55:00,37.5,26.0,30.38,NW,326,4.0,-999.0,66,-99.99,,,0.00,ADS-WS1 bash script,2013-01-10 02:55:00,
2013-01-09 22:00:00,37.5,27.0,30.39,NW,326,3.0,-999.0,67,-99.99,,,0.00,ADS-WS1 bash script,2013-01-10 03:00:00,
2013-01-09 22:05:00,37.3,26.0,30.39,NNW,343,3.0,-999.0,68,-99.99,,,0.00,ADS-WS1 bash script,2013-01-10 03:05:00,
2013-01-09 22:10:00,37.2,26.0,30.39,NW,319,7.0,-999.0,68,-99.99,,,0.00,ADS-WS1 bash script,2013-01-10 03:10:00,
2013-01-09 22:15:00,37.2,26.0,30.40,NW,319,7.0,-999.0,68,-99.99,,,0.00,ADS-WS1 bash script,2013-01-10 03:15:00,
2013-01-09 22:20:00,37.2,26.0,30.40,NW,307,3.0,-999.0,68,-99.99,,,0.00,ADS-WS1 bash script,2013-01-10 03:20:00,
2013-01-09 22:25:00,37.0,26.0,30.40,NW,307,1.0,-999.0,69,-99.99,,,0.00,ADS-WS1 bash script,2013-01-10 03:25:00,
2013-01-09 22:30:00,36.8,27.0,30.40,NW,324,4.0,-999.0,70,-99.99,,,0.00,ADS-WS1 bash script,2013-01-10 03:30:00,
2013-01-09 22:35:00,36.6,27.0,30.40,NNW,338,3.0,-999.0,70,-99.99,,,0.00,ADS-WS1 bash script,2013-01-10 03:35:00,
2013-01-09 22:40:00,36.4,25.0,30.40,NNE,21,1.0,-999.0,69,-99.99,,,0.00,ADS-WS1 bash script,2013-01-10 03:40:00,
2013-01-09 22:45:00,35.9,26.0,30.41,NW,324,1.0,-999.0,70,-99.99,,,0.00,ADS-WS1 bash script,2013-01-10 03:45:00,
2013-01-09 22:50:00,35.5,26.0,30.41,North,5,2.0,-999.0,72,-99.99,,,0.00,ADS-WS1 bash script,2013-01-10 03:50:00,
2013-01-09 22:55:00,35.4,25.0,30.41,NNW,328,2.0,-999.0,72,-99.99,,,0.00,ADS-WS1 bash script,2013-01-10 03:55:00,
2013-01-09 23:00:00,35.0,26.0,30.41,North,0,2.0,-999.0,73,-99.99,,,0.00,ADS-WS1 bash script,2013-01-10 04:00:00,
2013-01-09 23:05:00,34.8,26.0,30.42,NW,313,0.0,-999.0,73,-99.99,,,0.00,ADS-WS1 bash script,2013-01-10 04:05:00,
2013-01-09 23:10:00,34.6,26.0,30.42,NW,309,2.0,-999.0,74,-99.99,,,0.00,ADS-WS1 bash script,2013-01-10 04:10:00,
2013-01-09 23:20:00,34.1,25.0,30.42,WNW,296,1.0,-999.0,75,-99.99,,,0.00,ADS-WS1 bash script,2013-01-10 04:20:00,
2013-01-09 23:25:00,33.7,26.0,30.43,NW,313,1.0,-999.0,76,-99.99,,,0.00,ADS-WS1 bash script,2013-01-10 04:25:00,
2013-01-09 23:30:00,33.4,25.0,30.43,NW,313,0.0,-999.0,76,-99.99,,,0.00,ADS-WS1 bash script,2013-01-10 04:30:00,
2013-01-09 23:35:00,33.0,25.0,30.43,West,268,0.0,-999.0,77,-99.99,,,0.00,ADS-WS1 bash script,2013-01-10 04:35:00,
2013-01-09 23:45:00,32.7,26.0,30.44,SW,224,1.0,-999.0,79,-99.99,,,0.00,ADS-WS1 bash script,2013-01-10 04:45:00,
2013-01-09 23:50:00,32.1,25.0,30.44,West,268,0.0,-999.0,80,-99.99,,,0.00,ADS-WS1 bash script,2013-01-10 04:50:00,
2013-01-09 23:55:00,31.8,25.0,30.45,South,179,0.0,-999.0,80,-99.99,,,0.00,ADS-WS1 bash script,2013-01-10 04:55:00,